Date String (YYYY-MM-DD hh:mm:ss) UTC,Instrument flags,Ambient pressure (hPa),Sample flow (lpm),Bypass flow (lpm),Sample temperature (°C),Ambient temperature (°C),ASC tube jacket temperature (°C),LED temperature (°C),Box temperature (°C),Sample RH (%),Span deviation,Mass concentration (μg/m³),Mass concentration (μg/m³),Mass concentration (μg/m³)
DateTimeUTC,F1_M11,P_M11,Q1_M11,Q2_M11,T1_M11,T2_M11,T3_M11,T4_M11,T5_M11,U1_M11,ZSPAN_M11,X0_M11,X2_M11,X1_M11
2021-12-26 12:00:00,,0810.8,5.00,0.00,22.7,22.0,00.0,31.6,24.4,08.3,0000.0,0005.08,0001.21,0000.85
2021-12-26 12:01:00,,0810.8,5.00,0.00,22.7,22.0,00.0,31.6,24.3,08.3,0000.0,0005.05,0001.20,0000.87
2021-12-26 12:02:00,,0810.8,4.99,0.00,22.6,21.9,00.0,31.6,24.3,08.3,0000.0,0004.75,0001.25,0000.89
2021-12-26 12:03:00,,0810.8,5.01,0.00,22.6,21.9,00.0,31.6,24.3,08.4,0000.0,0004.21,0001.29,0000.90
2021-12-26 12:04:00,,0810.7,4.99,0.00,22.6,21.8,00.0,31.6,24.2,08.4,0000.0,0004.17,0001.30,0000.90
2021-12-26 12:05:00,,0810.7,5.00,0.00,22.6,21.8,00.0,31.6,24.2,08.2,0000.0,0004.12,0001.28,0000.89
2021-12-26 12:06:00,,0810.7,5.00,0.00,22.5,21.8,00.0,31.6,24.1,08.1,0000.0,0003.97,0001.23,0000.88
2021-12-26 12:07:00,,0810.7,5.01,0.00,22.5,21.8,00.0,31.6,24.1,08.1,0000.0,0003.85,0001.19,0000.86
2021-12-26 12:08:00,,0810.6,4.99,0.00,22.5,21.7,00.0,31.6,24.1,08.0,0000.0,0003.89,0001.20,0000.85
2021-12-26 12:09:00,,0810.6,5.00,0.00,22.5,21.7,00.0,31.5,24.1,08.0,0000.0,0003.25,0001.16,0000.82
2021-12-26 12:10:00,,0810.5,5.01,0.00,22.5,21.7,00.0,31.5,24.1,07.9,0000.0,0001.85,0001.07,0000.81
2021-12-26 12:11:00,,0810.6,5.00,0.00,22.5,21.7,00.0,31.5,24.1,07.9,0000.0,0001.61,0001.03,0000.80
2021-12-26 12:12:00,,0810.5,5.00,0.00,22.5,21.7,00.0,31.5,24.1,07.8,0000.0,0001.59,0001.02,0000.78
2021-12-26 12:13:00,,0810.5,5.00,0.00,22.5,21.7,00.0,31.5,24.1,07.7,0000.0,0001.48,0000.99,0000.77
2021-12-26 12:14:00,,0810.5,5.01,0.00,22.5,21.7,00.0,31.5,24.1,07.7,0000.0,0001.36,0000.95,0000.75
2021-12-26 12:15:00,,0810.6,5.00,0.00,22.5,21.7,00.0,31.5,24.1,07.7,0000.0,0001.35,0000.96,0000.74
2021-12-26 12:16:00,,0810.6,5.00,0.00,22.4,21.7,00.0,31.5,24.1,07.7,0000.0,0001.35,0000.97,0000.74
2021-12-26 12:17:00,,0810.6,4.99,0.00,22.4,21.8,00.0,31.5,24.1,07.7,0000.0,0001.29,0000.94,0000.73
2021-12-26 12:18:00,,0810.6,5.00,0.00,22.5,22.4,00.0,31.5,24.3,07.6,0000.0,0001.31,0000.92,0000.72
2021-12-26 12:19:00,,0810.8,5.00,0.00,22.7,23.1,00.0,31.6,24.6,08.0,0000.0,0001.29,0000.91,0000.72
2021-12-26 12:20:00,,0810.9,5.00,0.00,22.8,23.3,00.0,31.6,24.8,07.8,0000.0,0001.29,0000.91,0000.73
2021-12-26 12:21:00,,0810.9,5.00,0.00,22.8,23.1,00.0,31.6,24.7,07.9,0000.0,0001.30,0000.91,0000.74
2021-12-26 12:22:00,,0810.7,5.01,0.00,22.8,22.9,00.0,31.6,24.7,08.3,0000.0,0001.39,0000.94,0000.74
2021-12-26 12:23:00,,0810.7,4.99,0.00,22.8,22.7,00.0,31.6,24.6,08.3,0000.0,0001.42,0000.97,0000.75
2021-12-26 12:24:00,,0810.6,5.00,0.00,22.8,22.6,00.0,31.6,24.5,08.2,0000.0,0001.36,0000.94,0000.76
2021-12-26 12:25:00,,0810.6,5.01,0.00,22.8,22.5,00.0,31.7,24.5,08.0,0000.0,0001.36,0000.94,0000.77
2021-12-26 12:26:00,,0810.6,4.99,0.00,22.8,22.4,00.0,31.7,24.5,07.9,0000.0,0001.32,0000.92,0000.77
2021-12-26 12:27:00,,0810.6,5.01,0.00,22.8,22.3,00.0,31.7,24.5,07.8,0000.0,0001.32,0000.92,0000.77
2021-12-26 12:28:00,,0810.6,5.01,0.00,22.8,22.2,00.0,31.7,24.5,07.8,0000.0,0001.36,0000.93,0000.77
2021-12-26 12:29:00,,0810.6,5.00,0.00,22.7,22.2,00.0,31.7,24.4,08.2,0000.0,0001.39,0000.96,0000.78
2021-12-26 12:30:00,,0810.6,4.98,0.00,22.7,22.1,00.0,31.7,24.4,08.2,0000.0,0001.34,0000.95,0000.78
2021-12-26 12:31:00,,0810.6,5.02,0.00,22.7,22.0,00.0,31.7,24.3,08.0,0000.0,0001.37,0000.96,0000.79
2021-12-26 12:32:00,,0810.6,5.00,0.00,22.7,22.0,00.0,31.7,24.3,08.1,0000.0,0001.44,0000.98,0000.80
2021-12-26 12:33:00,,0810.4,4.99,0.00,22.6,21.9,00.0,31.6,24.3,08.2,0000.0,0001.37,0000.97,0000.80
2021-12-26 12:34:00,,0810.4,5.01,0.00,22.6,21.9,00.0,31.6,24.2,08.3,0000.0,0001.40,0000.96,0000.79
2021-12-26 12:35:00,,0810.3,5.01,0.00,22.6,21.9,00.0,31.6,24.2,08.3,0000.0,0001.41,0000.97,0000.79
2021-12-26 12:36:00,,0810.3,4.98,0.00,22.6,21.8,00.0,31.6,24.2,08.3,0000.0,0001.44,0000.99,0000.80
2021-12-26 12:37:00,,0810.4,5.02,0.00,22.6,21.8,00.0,31.6,24.3,08.2,0000.0,0001.49,0001.00,0000.81
2021-12-26 12:38:00,,0810.5,5.00,0.00,22.6,21.8,00.0,31.6,24.2,08.1,0000.0,0001.43,0000.98,0000.82
2021-12-26 12:39:00,,0810.6,5.00,0.00,22.6,21.8,00.0,31.6,24.2,08.1,0000.0,0001.43,0000.99,0000.82
2021-12-26 12:40:00,,0810.5,4.98,0.00,22.5,21.8,00.0,31.6,24.2,08.2,0000.0,0001.40,0000.98,0000.82
2021-12-26 12:41:00,,0810.5,5.01,0.00,22.5,21.8,00.0,31.6,24.2,08.2,0000.0,0001.50,0001.00,0000.82
2021-12-26 12:42:00,,0810.4,5.00,0.00,22.5,21.8,00.0,31.5,24.2,08.2,0000.0,0001.55,0001.00,0000.82
2021-12-26 12:43:00,,0810.4,5.00,0.00,22.5,21.7,00.0,31.5,24.2,08.2,0000.0,0001.48,0000.98,0000.81
2021-12-26 12:44:00,,0810.5,5.00,0.00,22.5,21.7,00.0,31.5,24.2,08.2,0000.0,0001.48,0000.98,0000.81
2021-12-26 12:45:00,,0810.5,5.00,0.00,22.5,21.7,00.0,31.5,24.2,08.3,0000.0,0001.41,0000.95,0000.80
2021-12-26 12:46:00,,0810.5,5.00,0.00,22.5,21.7,00.0,31.5,24.2,08.2,0000.0,0001.75,0000.95,0000.80
2021-12-26 12:47:00,,0810.5,4.99,0.00,22.5,21.7,00.0,31.5,24.2,08.2,0000.0,0002.00,0000.93,0000.81
2021-12-26 12:48:00,,0810.6,5.01,0.00,22.5,21.7,00.0,31.5,24.2,08.2,0000.0,0001.91,0000.90,0000.80
2021-12-26 12:49:00,,0810.6,4.99,0.00,22.5,21.7,00.0,31.5,24.2,08.2,0000.0,0001.93,0000.91,0000.79
2021-12-26 12:50:00,,0810.6,5.00,0.00,22.5,21.7,00.0,31.5,24.2,08.1,0000.0,0001.98,0000.92,0000.79
2021-12-26 12:51:00,,0810.6,5.00,0.00,22.5,21.7,00.0,31.5,24.1,08.1,0000.0,0001.97,0000.91,0000.80
2021-12-26 12:52:00,,0810.6,5.01,0.00,22.5,21.9,00.0,31.5,24.2,08.1,0000.0,0001.92,0000.91,0000.81
2021-12-26 12:53:00,,0810.6,4.99,0.00,22.6,22.5,00.0,31.5,24.4,08.1,0000.0,0001.84,0000.91,0000.82
2021-12-26 12:54:00,,0810.6,5.01,0.00,22.7,23.2,00.0,31.6,24.6,08.0,0000.0,0001.84,0000.91,0000.83
2021-12-26 12:55:00,,0810.5,5.00,0.00,22.8,23.2,00.0,31.6,24.7,08.0,0000.0,0001.81,0000.91,0000.83
2021-12-26 12:56:00,,0810.5,5.00,0.00,22.8,23.0,00.0,31.6,24.7,08.0,0000.0,0001.82,0000.92,0000.84
2021-12-26 12:57:00,,0810.5,4.99,0.00,22.8,22.8,00.0,31.6,24.6,08.0,0000.0,0001.49,0000.93,0000.84
2021-12-26 12:58:00,,0810.5,5.00,0.00,22.8,22.7,00.0,31.6,24.5,08.0,0000.0,0001.19,0000.93,0000.84
2021-12-26 12:59:00,,0810.4,5.00,0.00,22.8,22.5,00.0,31.6,24.5,08.1,0000.0,0001.22,0000.94,0000.85
